Regional Weather Roundup
Issued by NWS

Home | Current Version | Previous Version | Graphics & Text | Print | Product List | Glossary Off
Versions: 1 2 3 4 5 6 7 8 9 10 11 12 13 14 15 16 17 18 19 20 21 22 23 24 25 26 27 28 29 30 31 32 33 34 35 36 37 38 39 40 41 42 43 44 45 46 47 48 49 50

000
ASUS43 KFSD 021902
RWRSD

WEATHER ROUNDUP FOR SOUTH DAKOTA
NATIONAL WEATHER SERVICE SIOUX FALLS SD
200 PM CDT TUE JUN 02 2015

NOTE: "FAIR" INDICATES FEW OR NO CLOUDS BELOW 12,000 FEET WITH NO
SIGNIFICANT WEATHER AND/OR OBSTRUCTIONS TO VISIBILITY.


SDZ001>005-009-010-012>017-022000-
NORTHWEST AND NORTH CENTRAL SOUTH DAKOTA

CITY           SKY/WX    TMP DP  RH WIND       PRES   REMARKS
BUFFALO          N/A     75  57  53 W16G24    29.77S
FAITH            N/A     80  58  46 W13       29.77F
MOBRIDGE       SUNNY     86  61  42 S10       29.70S
$$

SDZ012>016-024>037-041>051-057-063-072>074-022000-
SOUTHWEST AND SOUTH CENTRAL SOUTH DAKOTA

CITY           SKY/WX    TMP DP  RH WIND       PRES   REMARKS
RAPID CTY ARPT SUNNY     79  61  53 N8G16     29.83S
PIERRE         SUNNY     85  61  44 SW13G21   29.71F
CUSTER         SUNNY     78  39  24 SW8G17    29.96S
ELLSWORTH AFB  SUNNY     77  61  56 N15       29.83S
PHILIP         MOSUNNY   84  62  47 N7        29.76S
PINE RIDGE     PTSUNNY   81  58  45 VRB5      29.84R
WINNER         FAIR      90  59  35 S15G24    29.77F
$$

SDZ004>011-016>023-039-040-022000-
NORTHEAST SOUTH DAKOTA

CITY           SKY/WX    TMP DP  RH WIND       PRES   REMARKS
ABERDEEN       SUNNY     79  63  57 S24G36    29.75F
WATERTOWN      PTSUNNY   76  60  57 S24G37    29.82F
BROOKINGS      PTSUNNY   73  61  64 S25       29.89F
SISSETON         N/A     77  60  55 S30G37    29.78F
$$

SDZ017-020-022-023-036>040-048>070-022000-
SOUTHEAST SOUTH DAKOTA

CITY           SKY/WX    TMP DP  RH WIND       PRES   REMARKS
SIOUX FALLS    PTSUNNY   74  60  61 S16G28    29.88F
HURON          SUNNY     81  60  48 S20G29    29.77F
CHAMBERLAIN    SUNNY     80  64  56 S17G26    29.76F
MITCHELL       SUNNY     82  61  48 S20G25    29.81F
YANKTON        PTSUNNY   75  61  60 S22       29.85F
$$

ABBREVIATIONS USED IN REMARKS
   TC - TEMPERATURE IN CELSIUS
  WCI - WIND CHILL INDEX
   HX - HEAT INDEX
  VSB - VISIBILITY



USA.gov is the U.S. government's official web portal to all federal, state and local government web resources and services.